H1 CPF 2 NER 2021 3 22 9 081 01 glonass116 H2 0907001 9116 36111 2021 3 22 0 0 0 2021 3 25 23 45 0 900 1 1 0 0 0 1 H9 10 0 59295 0.00000 0 -12668430.809 -2648872.306 -21978656.444 10 0 59295 900.00000 0 -10699229.861 -4578010.009 -22695213.673 10 0 59295 1800.00000 0 -8833524.045 -6689832.271 -22970874.628 10 0 59295 2700.00000 0 -7120360.490 -8935501.626 -22800228.594 10 0 59295 3600.00000 0 -5599545.670 -11258301.664 -22186534.499 10 0 59295 4500.00000 0 -4300148.771 -13595808.900 -21141662.062 10 0 59295 5400.00000 0 -3239469.164 -15882318.559 -19685865.866 10 0 59295 6300.00000 0 -2422510.761 -18051423.998 -17847396.166 10 0 59295 7200.00000 0 -1841984.592 -20038642.544 -15661953.492 10 0 59295 8100.00000 0 -1478838.814 -21783978.427 -13171997.147 10 0 59295 9000.00000 0 -1303293.045 -23234315.705 -10425920.556 10 0 59295 9900.00000 0 -1276332.699 -24345540.858 -7477109.395 10 0 59295 10800.00000 0 -1351599.317 -25084305.952 -4382900.731 10 0 59295 11700.00000 0 -1477596.074 -25429358.174 -1203463.709 10 0 59295 12600.00000 0 -1600114.158 -25372379.755 1999375.924 10 0 59295 13500.00000 0 -1664776.216 -24918303.014 5163343.915 10 0 59295 14400.00000 0 -1619588.104 -24085087.413 8226933.993 10 0 59295 15300.00000 0 -1417389.851 -22902968.382 11130608.237 10 0 59295 16200.00000 0 -1018101.150 -21413209.953 13817957.372 10 0 59295 17100.00000 0 -390665.531 -19666414.200 16236798.019 10 0 59295 18000.00000 0 485389.620 -17720458.982 18340185.290 10 0 59295 18900.00000 0 1618843.649 -15638150.981 20087321.255 10 0 59295 19800.00000 0 3006171.164 -13484692.512 21444342.004 10 0 59295 20700.00000 0 4631454.696 -11325068.143 22384968.617 10 0 59295 21600.00000 0 6466825.774 -9221459.990 22891010.201 10 0 59295 22500.00000 0 8473416.587 -7230798.895 22952710.041 10 0 59295 23400.00000 0 10602783.094 -5402552.788 22568928.868 10 0 59295 24300.00000 0 12798740.990 -3776843.208 21747162.322 10 0 59295 25200.00000 0 14999538.799 -2382967.196 20503392.609 10 0 59295 26100.00000 0 17140278.331 -1238384.783 18861777.392 10 0 59295 27000.00000 0 19155482.528 -348212.915 16854181.833 10 0 59295 27900.00000 0 20981704.458 294754.453 14519562.509 10 0 59295 28800.00000 0 22560069.295 709502.114 11903214.745 10 0 59295 29700.00000 0 23838643.753 925749.144 9055897.446 10 0 59295 30600.00000 0 24774534.413 982449.006 6032851.838 10 0 59295 31500.00000 0 25335627.316 925898.021 2892732.865 10 0 59295 32400.00000 0 25501896.156 807532.522 -303526.382 10 0 59295 33300.00000 0 25266224.141 681508.154 -3493895.293 10 0 59295 34200.00000 0 24634704.884 602163.966 -6616448.444 10 0 59295 35100.00000 0 23626409.489 621478.947 -9610566.970 10 0 59295 36000.00000 0 22272629.245 786629.008 -12418115.143 10 0 59295 36900.00000 0 20615625.386 1137748.232 -14984569.092 10 0 59295 37800.00000 0 18706937.945 1705989.688 -17260075.687 10 0 59295 38700.00000 0 16605324.151 2511968.500 -19200421.026 10 0 59295 39600.00000 0 14374412.259 3564653.809 -20767889.705 10 0 59295 40500.00000 0 12080168.489 4860757.442 -21931998.361 10 0 59295 41400.00000 0 9788282.389 6384646.332 -22670089.396 10 0 59295 42300.00000 0 7561579.310 8108783.721 -22967773.437 10 0 59295 43200.00000 0 5457567.389 9994682.131 -22819212.033 10 0 59295 44100.00000 0 3526220.729 11994329.638 -22227234.996 10 0 59295 45000.00000 0 1808090.709 14052031.082 -21203289.883 10 0 59295 45900.00000 0 332823.536 16106588.364 -19767224.250 10 0 59295 46800.00000 0 -881854.738 18093729.651 -17946904.387 10 0 59295 47700.00000 0 -1830643.988 19948686.473 -15777677.446 10 0 59295 48600.00000 0 -2520646.217 21608811.278 -13301686.874 10 0 59295 49500.00000 0 -2970814.100 23016125.923 -10567054.006 10 0 59295 50400.00000 0 -3210895.930 24119694.101 -7626941.569 10 0 59295 51300.00000 0 -3279922.477 24877717.869 -4538517.257 10 0 59295 52200.00000 0 -3224300.714 25259269.842 -1361837.748 10 0 59295 53100.00000 0 -3095596.041 25245587.841 1841324.543 10 0 59295 54000.00000 0 -2948098.028 24830877.260 5008688.548 10 0 59295 54900.00000 0 -2836273.856 24022587.244 8078681.228 10 0 59295 55800.00000 0 -2812218.350 22841149.045 10991639.337 10 0 59295 56700.00000 0 -2923209.536 21319187.762 13690972.279 10 0 59295 57600.00000 0 -3209474.014 19500240.832 16124263.001 10 0 59295 58500.00000 0 -3702257.276 17437037.405 18244285.272 10 0 59295 59400.00000 0 -4422281.019 15189411.065 20009917.703 10 0 59295 60300.00000 0 -5378652.957 12821933.358 21386937.161 10 0 59295 61200.00000 0 -6568275.363 10401367.107 22348676.730 10 0 59295 62100.00000 0 -7975777.628 7994045.489 22876536.250 10 0 59295 63000.00000 0 -9573976.075 5663285.545 22960336.325 10 0 59295 63900.00000 0 -11324842.257 3466943.063 22598509.693 10 0 59295 64800.00000 0 -13180939.854 1455209.485 21798126.849 10 0 59295 65700.00000 0 -15087270.810 -331258.812 20574755.834 10 0 59295 66600.00000 0 -16983454.325 -1862802.348 18952159.036 10 0 59295 67500.00000 0 -18806148.497 -3121752.101 16961832.823 10 0 59295 68400.00000 0 -20491614.247 -4102914.860 14642398.575 10 0 59295 69300.00000 0 -21978315.026 -4813531.426 12038856.528 10 0 59295 70200.00000 0 -23209444.131 -5272710.711 9201716.365 10 0 59295 71100.00000 0 -24135274.289 -5510364.578 6186020.881 10 0 59295 72000.00000 0 -24715231.200 -5565689.043 3050281.304 10 0 59295 72900.00000 0 -24919604.168 -5485256.562 -144655.385 10 0 59295 73800.00000 0 -24730821.828 -5320800.432 -3336785.346 10 0 59295 74700.00000 0 -24144239.118 -5126785.308 -6464150.002 10 0 59295 75600.00000 0 -23168401.989 -4957866.934 -9466038.026 10 0 59295 76500.00000 0 -21824778.201 -4866348.895 -12284163.696 10 0 59295 77400.00000 0 -20146964.909 -4899744.312 -14863798.521 10 0 59295 78300.00000 0 -18179405.658 -5098546.063 -17154834.094 10 0 59295 79200.00000 0 -15975669.842 -5494300.298 -19112755.523 10 0 59295 80100.00000 0 -13596366.031 -6108065.256 -20699506.520 10 0 59295 81000.00000 0 -11106775.710 -6949321.221 -21884229.534 10 0 59295 81900.00000 0 -8574305.508 -8015378.521 -22643866.712 10 0 59295 82800.00000 0 -6065863.600 -9291309.590 -22963610.104 10 0 59295 83700.00000 0 -3645268.905 -10750409.160 -22837192.477 10 0 59295 84600.00000 0 -1370800.303 -12355164.583 -22267012.978 10 0 59295 85500.00000 0 707012.636 -14058696.785 -21264095.006 10 0 59296 0.00000 0 2547266.109 -15806612.592 -19847876.782 10 0 59296 900.00000 0 4120148.067 -17539191.891 -18045837.939 10 0 59296 1800.00000 0 5407933.731 -19193818.450 -15892969.476 10 0 59296 2700.00000 0 6405468.736 -20707553.005 -13431096.027 10 0 59296 3600.00000 0 7120121.995 -22019740.998 -10708063.821 10 0 59296 4500.00000 0 7571210.036 -23074545.015 -7776809.600 10 0 59296 5400.00000 0 7788918.669 -23823295.366 -4694328.679 10 0 59296 6300.00000 0 7812768.387 -24226559.399 -1520562.355 10 0 59296 7200.00000 0 7689689.471 -24255841.893 1682773.084 10 0 59296 8100.00000 0 7471789.362 -23894844.404 4853392.393 10 0 59296 9000.00000 0 7213907.981 -23140230.118 7929658.206 10 0 59296 9900.00000 0 6971065.530 -22001861.660 10851784.164 10 0 59296 10800.00000 0 6795911.878 -20502501.761 13563000.301 10 0 59296 11700.00000 0 6736286.261 -18676989.284 16010657.565 10 0 59296 12600.00000 0 6832991.158 -16570925.335 18147249.727 10 0 59296 13500.00000 0 7117874.870 -14238924.604 19931332.943 10 0 59296 14400.00000 0 7612303.986 -11742505.126 21328325.496 10 0 59296 15300.00000 0 8326090.310 -9147704.600 22311172.737 10 0 59296 16200.00000 0 9256917.516 -6522522.353 22860865.119 10 0 59296 17100.00000 0 10390291.804 -3934292.957 22966800.106 10 0 59296 18000.00000 0 11700018.798 -1447100.056 22626981.649 10 0 59296 18900.00000 0 13149187.064 880663.123 21848054.032 10 0 59296 19800.00000 0 14691617.490 2998486.449 20645169.808 10 0 59296 20700.00000 0 16273718.408 4865598.883 19041694.569 10 0 59296 21600.00000 0 17836669.452 6452412.100 17068754.191 10 0 59296 22500.00000 0 19318843.432 7741493.102 14764633.000 10 0 59296 23400.00000 0 20658365.384 8728026.640 12174034.132 10 0 59296 24300.00000 0 21795702.142 9419749.490 9347215.899 10 0 59296 25200.00000 0 22676174.208 9836360.546 6339020.368 10 0 59296 26100.00000 0 23252284.712 10008432.479 3207812.638 10 0 59296 27000.00000 0 23485767.651 9975871.594 14351.070 10 0 59296 27900.00000 0 23349269.129 9785991.472 -3179389.803 10 0 59296 28800.00000 0 22827590.529 9491282.146 -6311420.768 10 0 59296 29700.00000 0 21918440.784 9146969.485 -9320940.438 10 0 59296 30600.00000 0 20632665.417 8808468.258 -12149515.332 10 0 59296 31500.00000 0 18993941.952 8528836.851 -14742214.347 10 0 59296 32400.00000 0 17037953.589 8356341.553 -17048675.557 10 0 59296 33300.00000 0 14811074.842 8332233.649 -19024084.587 10 0 59296 34200.00000 0 12368623.306 8488833.640 -20630045.550 10 0 59296 35100.00000 0 9772749.671 8848003.903 -21835327.796 10 0 59296 36000.00000 0 7090053.167 9420074.845 -22616474.124 10 0 59296 36900.00000 0 4389021.047 10203270.514 -22958258.729 10 0 59296 37800.00000 0 1737397.941 11183658.716 -22853986.098 10 0 59296 38700.00000 0 -800406.273 12335628.749 -22305624.961 10 0 59296 39600.00000 0 -3165762.829 13622877.631 -21323774.488 10 0 59296 40500.00000 0 -5308023.615 14999864.416 -19927463.059 10 0 59296 41400.00000 0 -7186383.020 16413672.422 -18143782.995 10 0 59296 42300.00000 0 -8771325.059 17806201.818 -16007367.856 10 0 59296 43200.00000 0 -10045596.180 19116600.934 -13559721.917 10 0 59296 44100.00000 0 -11004663.842 20283834.298 -10848414.385 10 0 59296 45000.00000 0 -11656642.498 21249279.262 -7926153.829 10 0 59296 45900.00000 0 -12021691.113 21959241.573 -4849760.737 10 0 59296 46800.00000 0 -12130908.630 22367283.406 -1679058.390 10 0 59296 47700.00000 0 -12024775.117 22436265.058 1524295.841 10 0 59296 48600.00000 0 -11751205.595 22140013.548 4698015.419 10 0 59296 49500.00000 0 -11363300.056 21464547.094 7780401.593 10 0 59296 50400.00000 0 -10916885.944 20408803.317 10711547.847 10 0 59296 51300.00000 0 -10467958.142 18984840.067 13434507.753 10 0 59296 52200.00000 0 -10070125.615 17217500.107 15896403.083 10 0 59296 53100.00000 0 -9772173.304 15143553.585 18049450.284 10 0 59296 54000.00000 0 -9615842.696 12810354.093 19851885.539 10 0 59296 54900.00000 0 -9633924.930 10274064.425 21268770.773 10 0 59296 55800.00000 0 -9848746.821 7597525.991 22272665.516 10 0 59296 56700.00000 0 -10271113.433 4847860.368 22844152.389 10 0 59296 57600.00000 0 -10899751.512 2093902.305 22972206.834 10 0 59296 58500.00000 0 -11721277.013 -596429.758 22654404.647 10 0 59296 59400.00000 0 -12710688.060 -3158717.360 21896963.999 10 0 59296 60300.00000 0 -13832362.740 -5534473.777 20714621.490 10 0 59296 61200.00000 0 -15041520.154 -7673324.062 19130344.861 10 0 59296 62100.00000 0 -16286083.813 -9534844.193 17174887.873 10 0 59296 63000.00000 0 -17508869.760 -11089984.274 14886195.625 10 0 59296 63900.00000 0 -18650008.059 -12322017.813 12308671.507 10 0 59296 64800.00000 0 -19649496.512 -13226978.838 9492319.419 10 0 59296 65700.00000 0 -20449779.686 -13813569.779 6491777.352 10 0 59296 66600.00000 0 -20998245.037 -14102545.004 3365260.726 10 0 59296 67500.00000 0 -21249531.153 -14125596.811 173435.616 10 0 59296 68400.00000 0 -21167550.777 -13923791.478 -3021756.457 10 0 59296 69300.00000 0 -20727143.025 -13545621.833 -6158299.302 10 0 59296 70200.00000 0 -19915284.633 -13044758.928 -9175305.039 10 0 59296 71100.00000 0 -18731808.478 -12477598.117 -12014195.827 10 0 59296 72000.00000 0 -17189598.191 -11900703.379 -14619841.122 10 0 59296 72900.00000 0 -15314249.699 -11368258.103 -16941628.329 10 0 59296 73800.00000 0 -13143212.690 -10929630.145 -18934446.038 10 0 59296 74700.00000 0 -10724446.909 -10627154.132 -20559560.707 10 0 59296 75600.00000 0 -8114648.275 -10494224.832 -21785369.948 10 0 59296 76500.00000 0 -5377117.755 -10553782.216 -22588017.934 10 0 59296 77400.00000 0 -2579360.829 -10817252.473 -22951861.079 10 0 59296 78300.00000 0 209483.486 -11283990.011 -22869775.038 10 0 59296 79200.00000 0 2921278.058 -11941244.537 -22343297.002 10 0 59296 80100.00000 0 5491478.606 -12764655.266 -21382600.304 10 0 59296 81000.00000 0 7861573.240 -13719252.159 -20006301.496 10 0 59296 81900.00000 0 9981269.766 -14760922.768 -18241103.144 10 0 59296 82800.00000 0 11810340.179 -15838283.526 -16121278.757 10 0 59296 83700.00000 0 13320046.097 -16894877.134 -13688009.340 10 0 59296 84600.00000 0 14494086.257 -17871603.703 -10988583.970 10 0 59296 85500.00000 0 15329027.078 -18709283.106 -8075479.750 10 0 59297 0.00000 0 15834199.139 -19351240.253 -5005339.007 10 0 59297 900.00000 0 16031064.748 -19745803.353 -1837863.408 10 0 59297 1800.00000 0 15952084.569 -19848609.957 1365351.968 10 0 59297 2700.00000 0 15639131.722 -19624620.969 4542022.610 10 0 59297 3600.00000 0 15141522.083 -19049758.651 7630391.489 10 0 59297 4500.00000 0 14513744.721 -18112097.431 10570434.740 10 0 59297 5400.00000 0 13812989.675 -16812557.264 13305031.916 10 0 59297 6300.00000 0 13096578.394 -15165069.595 15781077.623 10 0 59297 7200.00000 0 12419406.132 -13196208.598 17950512.554 10 0 59297 8100.00000 0 11831504.647 -10944302.772 19771254.006 10 0 59297 9000.00000 0 11375828.220 -8458063.770 21208008.171 10 0 59297 9900.00000 0 11086356.139 -5794789.466 22232948.917 10 0 59297 10800.00000 0 10986591.250 -3018215.767 22826250.755 10 0 59297 11700.00000 0 11088517.253 -196106.030 22976466.410 10 0 59297 12600.00000 0 11392058.092 2602322.330 22680742.469 10 0 59297 13500.00000 0 11885061.702 5309028.074 21944869.607 10 0 59297 14400.00000 0 12543808.468 7859725.102 20783166.813 10 0 59297 15300.00000 0 13334022.881 10196304.190 19218202.090 10 0 59297 16200.00000 0 14212345.963 12268998.253 17280355.002 10 0 59297 17100.00000 0 15128206.773 14038202.434 15007229.205 10 0 59297 18000.00000 0 16026014.651 15475874.504 12442925.985 10 0 59297 18900.00000 0 16847580.350 16566458.457 9637192.365 10 0 59297 19800.00000 0 17534664.499 17307293.863 6644459.708 10 0 59297 20700.00000 0 18031546.275 17708494.791 3522791.146 10 0 59297 21600.00000 0 18287504.127 17792304.331 332757.839 10 0 59297 22500.00000 0 18259103.826 17591952.477 -2863734.289 10 0 59297 23400.00000 0 17912197.028 17150066.047 -6004644.553 10 0 59297 24300.00000 0 17223545.500 16516698.037 -9029000.895 10 0 59297 25200.00000 0 16182001.760 15747059.837 -11878083.197 10 0 59297 26100.00000 0 14789195.450 14899052.197 -14496563.289 10 0 59297 27000.00000 0 13059695.422 14030699.236 -16833579.450 10 0 59297 27900.00000 0 11020639.450 13197593.835 -18843724.506 10 0 59297 28800.00000 0 8710845.794 12450462.188 -20487928.303 10 0 59297 29700.00000 0 6179442.446 11832950.154 -21734217.557 10 0 59297 30600.00000 0 3484069.934 11379724.730 -22558338.487 10 0 59297 31500.00000 0 688731.493 11114970.621 -22944230.220 10 0 59297 32400.00000 0 -2138621.103 11051345.308 -22884339.878 10 0 59297 33300.00000 0 -4928666.644 11189436.779 -22379773.164 10 0 59297 34200.00000 0 -7613352.117 11517747.012 -21440277.330 10 0 59297 35100.00000 0 -10128480.033 12013202.214 -20084056.520 10 0 59297 36000.00000 0 -12416138.492 12642168.711 -18337422.601 10 0 59297 36900.00000 0 -14426873.352 13361932.033 -16234287.747 10 0 59297 37800.00000 0 -16121512.484 14122577.081 -13815508.088 10 0 59297 38700.00000 0 -17472566.503 14869190.218 -11128090.709 10 0 59297 39600.00000 0 -18465147.837 15544290.233 -8224279.179 10 0 59297 40500.00000 0 -19097370.290 16090385.200 -5160535.304 10 0 59297 41400.00000 0 -19380213.064 16452546.681 -1996437.055 10 0 59297 42300.00000 0 -19336855.749 16580891.739 1206485.340 10 0 59297 43200.00000 0 -19001513.317 16432867.006 4385951.923 10 0 59297 44100.00000 0 -18417821.302 15975237.351 7480149.982 10 0 59297 45000.00000 0 -17636840.397 15185694.279 10428940.948 10 0 59297 45900.00000 0 -16714765.778 14054015.320 13175033.037 10 0 59297 46800.00000 0 -15710438.809 12582724.833 15665096.349 10 0 59297 47700.00000 0 -14682766.861 10787227.769 17850798.401 10 0 59297 48600.00000 0 -13688160.558 8695410.280 19689740.051 10 0 59297 49500.00000 0 -12778096.594 6346723.346 21146273.969 10 0 59297 50400.00000 0 -11996908.599 3790787.369 22192190.314 10 0 59297 51300.00000 0 -11379898.550 1085575.413 22807257.084 10 0 59297 52200.00000 0 -10951847.448 -1704749.865 22979605.502 10 0 59297 53100.00000 0 -10725987.065 -4512256.257 22705953.722 10 0 59297 54000.00000 0 -10703475.106 -7267819.360 21991665.227 10 0 59297 54900.00000 0 -10873395.076 -9903751.271 20850641.213 10 0 59297 55800.00000 0 -11213280.247 -12356372.478 19305049.271 10 0 59297 56700.00000 0 -11690139.312 -14568421.389 17384893.587 10 0 59297 57600.00000 0 -12261940.394 -16491202.536 15127434.719 10 0 59297 58500.00000 0 -12879490.962 -18086385.214 12576469.768 10 0 59297 59400.00000 0 -13488634.636 -19327378.715 9781486.420 10 0 59297 60300.00000 0 -14032672.479 -20200227.798 6796706.647 10 0 59297 61200.00000 0 -14454906.845 -20703991.789 3680038.281 10 0 59297 62100.00000 0 -14701200.503 -20850592.191 491954.383 10 0 59297 63000.00000 0 -14722442.930 -20664135.870 -2705678.042 10 0 59297 63900.00000 0 -14476819.349 -20179742.678 -5850797.207 10 0 59297 64800.00000 0 -13931786.231 -19441927.282 -8882350.303 10 0 59297 65700.00000 0 -13065669.132 -18502603.564 -11741478.339 10 0 59297 66600.00000 0 -11868814.589 -17418795.851 -14372658.828 10 0 59297 67500.00000 0 -10344246.406 -16250153.481 -16724784.051 10 0 59297 68400.00000 0 -8507797.397 -15056373.407 -18752153.920 10 0 59297 69300.00000 0 -6387709.695 -13894639.334 -20415364.124 10 0 59297 70200.00000 0 -4023718.855 -12817185.033 -21682072.457 10 0 59297 71100.00000 0 -1465658.546 -11869084.191 -22527628.608 10 0 59297 72000.00000 0 1228357.322 -11086359.565 -22935555.254 10 0 59297 72900.00000 0 3994100.617 -10494490.743 -22897871.231 10 0 59297 73800.00000 0 6763654.259 -10107383.090 -22415250.458 10 0 59297 74700.00000 0 9467996.784 -9926841.134 -21497013.300 10 0 59297 75600.00000 0 12039639.638 -9942568.484 -20160950.239 10 0 59297 76500.00000 0 14415208.207 -10132694.257 -18432980.779 10 0 59297 77400.00000 0 16537859.568 -10464803.882 -16346653.691 10 0 59297 78300.00000 0 18359436.690 -10897430.773 -13942497.779 10 0 59297 79200.00000 0 19842269.500 -11381945.853 -11267235.307 10 0 59297 80100.00000 0 20960547.814 -11864764.893 -8372873.113 10 0 59297 81000.00000 0 21701209.028 -12289779.995 -5315689.043 10 0 59297 81900.00000 0 22064303.802 -12600911.802 -2155133.503 10 0 59297 82800.00000 0 22062824.943 -12744673.712 1047331.935 10 0 59297 83700.00000 0 21722007.431 -12672638.739 4229435.717 10 0 59297 84600.00000 0 21078129.953 -12343703.661 7329313.162 10 0 59297 85500.00000 0 20176869.410 -11726053.776 10286714.429 10 0 59298 0.00000 0 19071278.766 -10798744.375 13044179.384 10 0 59298 900.00000 0 17819474.437 -9552830.863 15548156.308 10 0 59298 1800.00000 0 16482131.293 -7992000.526 17750041.582 10 0 59298 2700.00000 0 15119891.776 -6132676.501 19607121.164 10 0 59298 3600.00000 0 13790797.706 -4003591.154 21083395.251 10 0 59298 4500.00000 0 12547853.253 -1644844.784 22150270.824 10 0 59298 5400.00000 0 11436820.692 893511.046 22787109.426 10 0 59298 6300.00000 0 10494340.833 3553307.318 22981620.377 10 0 59298 7200.00000 0 9746456.005 6270432.787 22730092.571 10 0 59298 8100.00000 0 9207596.470 8977261.054 22037461.078 10 0 59298 9000.00000 0 8880071.651 11605229.622 20917207.722 10 0 59298 9900.00000 0 8754086.535 14087464.741 19391097.776 10 0 59298 10800.00000 0 8808281.675 16361344.132 17488757.891 10 0 59298 11700.00000 0 9010773.434 18370892.147 15247103.128 10 0 59298 12600.00000 0 9320650.335 20068908.680 12709623.829 10 0 59298 13500.00000 0 9689862.234 21418744.131 9925545.603 10 0 59298 14400.00000 0 10065422.633 22395647.223 6948878.183 10 0 59298 15300.00000 0 10391831.201 22987630.023 3837371.168 10 0 59298 16200.00000 0 10613614.203 23195814.580 651396.571 10 0 59298 17100.00000 0 10677875.417 23034247.141 -2547220.419 10 0 59298 18000.00000 0 10536749.492 22529188.063 -5696399.698 10 0 59298 18900.00000 0 10149653.688 21717907.543 -8735010.283 10 0 59298 19800.00000 0 9485242.187 20647037.965 -11604056.633 10 0 59298 20700.00000 0 8522979.699 19370552.250 -14247823.955 10 0 59298 21600.00000 0 7254266.895 17947453.265 -16614960.226 10 0 59298 22500.00000 0 5683069.025 16439271.384 -18659473.822 10 0 59298 23400.00000 0 3826019.917 14907475.302 -20341627.378 10 0 59298 24300.00000 0 1711995.439 13410904.649 -21628710.618 10 0 59298 25200.00000 0 -618827.301 12003331.958 -22495677.314 10 0 59298 26100.00000 0 -3116387.207 10731256.024 -22925634.080 10 0 59298 27000.00000 0 -5722575.264 9632018.857 -22910171.607 10 0 59298 27900.00000 0 -8373414.295 8732324.867 -22449531.871 10 0 59298 28800.00000 0 -11001492.752 8047224.061 -21552607.869 10 0 59298 29700.00000 0 -13538552.233 7579601.577 -20236775.578 10 0 59298 30600.00000 0 -15918121.837 7320194.636 -18527560.925 10 0 59298 31500.00000 0 -18078090.064 7248135.921 -16458147.728 10 0 59298 32400.00000 0 -19963107.491 7332000.126 -14068735.633 10 0 59298 33300.00000 0 -21526720.145 7531309.200 -11405760.018 10 0 59298 34200.00000 0 -22733144.455 7798432.301 -8520988.790 10 0 59298 35100.00000 0 -23558609.659 8080799.622 -5470513.517 10 0 59298 36000.00000 0 -23992211.516 8323335.750 -2313654.671 10 0 59298 36900.00000 0 -24036241.730 8471008.777 888197.257 10 0 59298 37800.00000 0 -23705979.701 8471386.300 4072781.581 10 0 59298 38700.00000 0 -23028955.938 8277089.077 7178184.156 10 0 59298 39600.00000 0 -22043718.902 7848037.501 10144046.417 10 0 59298 40500.00000 0 -20798158.042 7153394.879 12912742.535 10 0 59298 41400.00000 0 -19347454.453 6173124.496 15430501.289 10 0 59298 42300.00000 0 -17751746.210 4899093.994 17648450.407 10 0 59298 43200.00000 0 -16073607.103 3335679.796 19523563.207 10 0 59298 44100.00000 0 -14375445.019 1499845.517 21019489.394 10 0 59298 45000.00000 0 -12716929.181 -579309.536 22107254.450 10 0 59298 45900.00000 0 -11152553.748 -2861513.495 22765814.788 10 0 59298 46800.00000 0 -9729439.113 -5296757.202 22982458.775 10 0 59298 47700.00000 0 -8485462.038 -7827142.407 22753046.599 10 0 59298 48600.00000 0 -7447791.640 -10389066.824 22082085.091 10 0 59298 49500.00000 0 -6631891.191 -12915656.057 20982636.479 10 0 59298 50400.00000 0 -6041026.255 -15339342.179 19476063.123 10 0 59298 51300.00000 0 -5666298.515 -17594482.755 17591613.161 10 0 59298 52200.00000 0 -5487202.785 -19619912.411 15365854.826 10 0 59298 53100.00000 0 -5472683.015 -21361321.530 12841970.017 10 0 59298 54000.00000 0 -5582642.197 -22773363.854 10068920.291 10 0 59298 54900.00000 0 -5769842.152 -23821405.718 7100500.885 10 0 59298 55800.00000 0 -5982112.854 -24482844.352 3994300.700 10 0 59298 56700.00000 0 -6164777.784 -24747940.529 810588.033 10 0 59298 57600.00000 0 -6263192.671 -24620130.936 -2388856.561 10 0 59298 58500.00000 0 -6225290.075 -24115807.340 -5541937.617 10 0 59298 59400.00000 0 -6004021.833 -23263571.885 -8587449.047 10 0 59298 60300.00000 0 -5559595.599 -22102999.817 -11466261.891 10 0 59298 61200.00000 0 -4861410.271 -20682961.536 -14122472.215 10 0 59298 62100.00000 0 -3889607.696 -19059574.375 -16504486.782 10 0 59298 63000.00000 0 -2636174.075 -17293869.914 -18566025.380 10 0 59298 63900.00000 0 -1105543.468 -15449274.550 -20267020.259 10 0 59298 64800.00000 0 685323.451 -13589008.682 -21574395.387 10 0 59298 65700.00000 0 2707390.254 -11773513.164 -22462710.497 10 0 59298 66600.00000 0 4920507.899 -10058010.455 -22914657.526 10 0 59298 67500.00000 0 7274851.474 -8490302.097 -22921399.907 10 0 59298 68400.00000 0 9712772.072 -7108894.203 -22482748.064 10 0 59298 69300.00000 0 12170987.799 -5941528.948 -21607167.547 10 0 59298 70200.00000 0 14583023.717 -5004182.994 -20311619.300 10 0 59298 71100.00000 0 16881799.934 -4300574.263 -18621234.710 10 0 59298 72000.00000 0 19002260.429 -3822197.226 -16568831.236 10 0 59298 72900.00000 0 20883933.335 -3548884.592 -14194277.493 10 0 59298 73800.00000 0 22473315.919 -3449871.124 -11543719.634 10 0 59298 74700.00000 0 23725984.402 -3485314.099 -8668683.816 10 0 59298 75600.00000 0 24608340.269 -3608205.422 -5625072.100 10 0 59298 76500.00000 0 25098919.700 -3766593.749 -2472071.425 10 0 59298 77400.00000 0 25189211.102 -3906021.675 729002.621 10 0 59298 78300.00000 0 24883946.525 -3972073.800 3915904.154 10 0 59298 79200.00000 0 24200854.940 -3912926.682 7026673.444 10 0 59298 80100.00000 0 23169888.222 -3681791.681 10000846.892 10 0 59298 81000.00000 0 21831952.998 -3239146.274 12780636.313 10 0 59298 81900.00000 0 20237202.328 -2554658.551 15312054.066 10 0 59298 82800.00000 0 18442959.730 -1608722.800 17545961.750 10 0 59298 83700.00000 0 16511363.271 -393540.701 19439022.106 10 0 59298 84600.00000 0 14506828.887 1086298.040 20954535.971 10 0 59298 85500.00000 0 12493439.357 2813760.563 22063148.464 99